Weather History for Pueblo, CO

Change the Weather History Date:

Saturday, March 1, 2014

  Actual Average Record
Temperature  
Mean Temperature 21 °F 38 °F  
Max Temperature 30 °F 55 °F 79 °F (2008)
Min Temperature 11 °F 21 °F -13 °F (1922)
Degree Days  
Heating Degree Days 44 27  
Month to date heating degree days 44 27  
Since 1 July heating degree days 4249 4330  
Cooling Degree Days 0 0  
Month to date cooling degree days 0 0  
Year to date cooling degree days 0 0  
Moisture  
Dew Point 18 °F    
Average Humidity 89    
Maximum Humidity 100    
Minimum Humidity 78    
Precipitation  
Precipitation T in 0.02 in 0.80 in (1993)
Month to date precipitation T 0.02  
Year to date precipitation 0.73 0.67  
Snow  
Snow T in 0.10 in 6.10 in (1948)
Month to date snowfall T 0.1  
Since 1 July snowfall 18.6 21.9  
Snow Depth T in    
Sea Level Pressure  
Sea Level Pressure 29.99 in    
Wind  
Wind Speed 11 mph (ESE)    
Max Wind Speed 17 mph    
Max Gust Speed 22 mph    
Visibility 7 miles    
Events Snow    
T = Trace of Precipitation, MM = Missing Value Source: NWS Daily Summary

Daily Weather History Graph

Daily Weather History Graph

Search for Another Location

Airport:

Trip Planner

Search our weather history database for the weather conditions in past years. The results will help you decide how hot, cold, wet, or windy it might be!

Date:

Astronomy

Mar. 01, 2014 Rise Set
Actual Time 6:29 AM MST 5:51 PM MST
Civil Twilight 6:03 AM MST 6:17 PM MST
Nautical Twilight 5:32 AM MST 6:48 PM MST
Astronomical Twilight 5:02 AM MST 7:19 PM MST
Moon 6:25 AM MST (3/1) 6:40 PM MST (3/1)
Length of Visible Light 12h 14m
Length of Day
11h 21m
New Moon, 0% of the Moon is Illuminated
Mar 1
New Moon
Mar 8
First Quarter
Mar 16
Full
Mar 23
Last Quarter
Mar 30
New

Hourly Weather History & Observations

Time (MST) Temp. Windchill Dew Point Humidity Pressure Visibility Wind Dir Wind Speed Gust Speed Precip Events Conditions
12:43 AM 28.9 °F 19.8 °F 23.0 °F 78% 29.90 in 10.0 mi East 10.4 mph - N/A   Overcast
12:53 AM 28.9 °F 20.4 °F 23.0 °F 78% 29.85 in 10.0 mi East 9.2 mph - N/A   Overcast
1:53 AM 28.0 °F 17.5 °F 23.0 °F 81% 29.83 in 10.0 mi ESE 12.7 mph - N/A   Overcast
2:53 AM 27.0 °F 17.3 °F 23.0 °F 85% 29.82 in 10.0 mi ESE 10.4 mph - N/A   Overcast
3:53 AM 26.1 °F 16.8 °F 23.0 °F 88% 29.80 in 10.0 mi ESE 9.2 mph - N/A   Overcast
4:53 AM 26.1 °F 19.4 °F 23.0 °F 88% 29.81 in 10.0 mi East 5.8 mph - N/A   Overcast
5:53 AM 25.0 °F 18.1 °F 23.0 °F 92% 29.80 in 9.0 mi ESE 5.8 mph - N/A   Overcast
6:53 AM 24.1 °F 18.2 °F 23.0 °F 96% 29.86 in 6.0 mi SSE 4.6 mph - N/A   Overcast
7:53 AM 25.0 °F 18.1 °F 21.9 °F 88% 29.86 in 7.0 mi ENE 5.8 mph - N/A   Overcast
8:53 AM 26.1 °F 16.8 °F 21.9 °F 84% 29.89 in 8.0 mi ENE 9.2 mph - N/A   Overcast
9:53 AM 26.1 °F 14.0 °F 23.0 °F 88% 29.94 in 7.0 mi East 15.0 mph - N/A   Overcast
10:30 AM 25.0 °F 11.7 °F 23.0 °F 92% 29.88 in 6.0 mi East 17.3 mph - N/A   Overcast
10:53 AM 24.1 °F 10.6 °F 21.9 °F 91% 29.98 in 3.0 mi East 17.3 mph - N/A   Overcast
11:07 AM 23.0 °F 9.6 °F 21.9 °F 96% 29.91 in 1.8 mi East 16.1 mph - N/A   Overcast
11:36 AM 23.0 °F 9.6 °F 21.0 °F 92% 29.93 in 2.5 mi East 16.1 mph - N/A   Overcast
11:53 AM 21.9 °F 8.2 °F 19.9 °F 92% 30.04 in 3.0 mi East 16.1 mph - N/A   Overcast
12:53 PM 21.0 °F 8.1 °F 19.9 °F 96% 30.03 in 2.5 mi ESE 13.8 mph - N/A   Overcast
1:34 PM 19.9 °F 7.3 °F 19.0 °F 96% 29.96 in 3.0 mi SE 12.7 mph - N/A   Overcast
1:53 PM 19.9 °F 8.6 °F 19.0 °F 96% 30.07 in 4.0 mi ESE 10.4 mph - N/A   Overcast
2:39 PM 19.9 °F 6.7 °F 17.1 °F 89% 29.95 in 10.0 mi ESE 13.8 mph - N/A   Overcast
2:53 PM 19.0 °F 6.1 °F 17.1 °F 92% 30.07 in 9.0 mi SE 12.7 mph - N/A   Overcast
3:53 PM 19.0 °F 5.0 °F 16.0 °F 88% 30.07 in 9.0 mi SE 15.0 mph - N/A   Overcast
4:53 PM 19.0 °F 8.2 °F 15.1 °F 85% 30.06 in 10.0 mi SE 9.2 mph - N/A   Overcast
5:05 PM 19.0 °F 8.2 °F 14.0 °F 81% 29.96 in 10.0 mi SE 9.2 mph - N/A   Overcast
5:53 PM 18.0 °F 4.2 °F 12.9 °F 81% 30.07 in 10.0 mi East 13.8 mph - N/A   Overcast
6:53 PM 17.1 °F 3.6 °F 12.9 °F 84% 30.11 in 10.0 mi East 12.7 mph - N/A   Overcast
7:02 PM 17.1 °F 2.5 °F 12.9 °F 84% 29.98 in 10.0 mi ESE 15.0 mph - N/A   Overcast
7:53 PM 16.0 °F 2.9 °F 12.9 °F 88% 30.14 in 10.0 mi East 11.5 mph - N/A   Overcast
8:53 PM 14.0 °F -0.2 °F 10.9 °F 88% 30.19 in 9.0 mi ESE 12.7 mph - N/A   Overcast
9:53 PM 12.9 °F -0.9 °F 10.9 °F 92% 30.19 in 6.0 mi SE 11.5 mph - N/A   Overcast
10:53 PM 12.0 °F -2.0 °F 9.0 °F 88% 30.21 in 2.0 mi ESE 11.5 mph - 0.00 in Snow Light Snow
11:01 PM 12.0 °F -1.3 °F 10.0 °F 92% 30.07 in 1.5 mi ESE 10.4 mph - 0.00 in Snow Light Snow
11:53 PM 10.9 °F -1.8 °F 9.0 °F 92% 30.23 in 1.5 mi SE 9.2 mph - 0.00 in Snow Light Snow